"Sample Date","Sample Time","Sample Value","Units","Flow Rate","Number Channels","Micron Size 0","Counts/Channel 0","Micron Size 1","Counts/Channel 1","Micron Size 2","Counts/Channel 2","Micron Size 3","Counts/Channel 3","Micron Size 4","Counts/Channel 4","Micron Size 5","Counts/Channel 5","Micron Size 6","Counts/Channel 6","Micron Size 7","Counts/Channel 7","Micron Size 8","Counts/Channel 8","Micron Size 9","Counts/Channel 9","Micron Size 10","Counts/Channel 10","Micron Size 11","Counts/Channel 11","Micron Size 12","Counts/Channel 12","Micron Size 13","Counts/Channel 13","Micron Size 14","Counts/Channel 14","Micron Size 15","Counts/Channel 15","Micron Size 16","Counts/Channel 16","Micron Size 17","Counts/Channel 17","Micron Size 18","Counts/Channel 18","Micron Size 19","Counts/Channel 19","Micron Size 20","Counts/Channel 20","Micron Size 21","Counts/Channel 21","Micron Size 22","Counts/Channel 22","Micron Size 23","Counts/Channel 23","Micron Size 24","Counts/Channel 24","Micron Size 25","Counts/Channel 25","Micron Size 26","Counts/Channel 26","Micron Size 27","Counts/Channel 27","Micron Size 28","Counts/Channel 28","Micron Size 29","Counts/Channel 29","Micron Size 30","Counts/Channel 30","Micron Size 31","Counts/Channel 31"
"05/09/08","18:00:00",3420.000,"cc",28341.871,6,0.100,2680.000,0.200,642.000,0.300,77.000,0.500,20.000,1.000,1.000,5.000,0
"05/09/08","18:00:06",4021.000,"cc",28330.648,6,0.100,3230.000,0.200,684.000,0.300,85.000,0.500,19.000,1.000,3.000,5.000,0
"05/09/08","18:00:12",4223.000,"cc",28290.623,6,0.100,3343.000,0.200,761.000,0.300,100.000,0.500,17.000,1.000,2.000,5.000,0
"05/09/08","18:00:18",3960.000,"cc",28306.469,6,0.100,3170.000,0.200,695.000,0.300,71.000,0.500,21.000,1.000,3.000,5.000,0
"05/09/08","18:00:24",4603.000,"cc",28307.176,6,0.100,3659.000,0.200,813.000,0.300,100.000,0.500,30.000,1.000,1.000,5.000,0
"05/09/08","18:00:30",3616.000,"cc",28282.947,6,0.100,2837.000,0.200,674.000,0.300,82.000,0.500,22.000,1.000,1.000,5.000,0
"05/09/08","18:00:36",3466.000,"cc",28338.695,6,0.100,2689.000,0.200,676.000,0.300,76.000,0.500,21.000,1.000,4.000,5.000,0
"05/09/08","18:00:42",3599.000,"cc",28309.947,6,0.100,2842.000,0.200,627.000,0.300,100.000,0.500,29.000,1.000,1.000,5.000,0
"05/09/08","18:00:48",4230.000,"cc",28362.859,6,0.100,3341.000,0.200,768.000,0.300,92.000,0.500,26.000,1.000,3.000,5.000,0
"05/09/08","18:00:54",4134.000,"cc",28300.213,6,0.100,3213.000,0.200,779.000,0.300,109.000,0.500,33.000,1.000,0,5.000,0
"05/09/08","18:01:00",4479.000,"cc",28300.242,6,0.100,3545.000,0.200,786.000,0.300,120.000,0.500,26.000,1.000,2.000,5.000,0
"05/09/08","18:01:06",3817.000,"cc",28293.670,6,0.100,3022.000,0.200,683.000,0.300,91.000,0.500,18.000,1.000,3.000,5.000,0
"05/09/08","18:01:12",2989.000,"cc",28322.354,6,0.100,2275.000,0.200,607.000,0.300,83.000,0.500,23.000,1.000,1.000,5.000,0
"05/09/08","18:01:18",3932.000,"cc",28325.000,6,0.100,3107.000,0.200,691.000,0.300,101.000,0.500,31.000,1.000,2.000,5.000,0
"05/09/08","18:01:24",5950.000,"cc",28300.459,6,0.100,4825.000,0.200,994.000,0.300,113.000,0.500,17.000,1.000,1.000,5.000,0
"05/09/08","18:01:30",3932.000,"cc",28272.996,6,0.100,3083.000,0.200,730.000,0.300,91.000,0.500,25.000,1.000,3.000,5.000,0
"05/09/08","18:01:36",3834.000,"cc",28361.572,6,0.100,3015.000,0.200,707.000,0.300,90.000,0.500,20.000,1.000,2.000,5.000,0
"05/09/08","18:01:42",3655.000,"cc",28306.236,6,0.100,2892.000,0.200,649.000,0.300,89.000,0.500,22.000,1.000,3.000,5.000,0
"05/09/08","18:01:48",5578.000,"cc",28287.432,6,0.100,4496.000,0.200,961.000,0.300,101.000,0.500,18.000,1.000,2.000,5.000,0
"05/09/08","18:01:54",5655.000,"cc",28399.190,6,0.100,4553.000,0.200,966.000,0.300,114.000,0.500,19.000,1.000,3.000,5.000,0
"05/09/08","18:02:00",5691.000,"cc",28320.709,6,0.100,4626.000,0.200,938.000,0.300,100.000,0.500,24.000,1.000,3.000,5.000,0
"05/09/08","18:02:06",9215.000,"cc",28345.982,6,0.100,7652.000,0.200,1403.000,0.300,134.000,0.500,22.000,1.000,4.000,5.000,0
"05/09/08","18:02:12",9419.000,"cc",28345.781,6,0.100,7829.000,0.200,1422.000,0.300,136.000,0.500,29.000,1.000,3.000,5.000,0
"05/09/08","18:02:18",15471.000,"cc",28312.787,6,0.100,13070.000,0.200,2202.000,0.300,166.000,0.500,32.000,1.000,1.000,5.000,0
"05/09/08","18:02:24",20285.000,"cc",28297.940,6,0.100,17196.000,0.200,2855.000,0.300,202.000,0.500,30.000,1.000,2.000,5.000,0
"05/09/08","18:02:30",15283.000,"cc",28314.422,6,0.100,12923.000,0.200,2144.000,0.300,186.000,0.500,29.000,1.000,1.000,5.000,0
"05/09/08","18:02:36",16673.000,"cc",28286.898,6,0.100,13946.000,0.200,2510.000,0.300,186.000,0.500,23.000,1.000,8.000,5.000,0
"05/09/08","18:02:42",16875.000,"cc",28248.668,6,0.100,14228.000,0.200,2402.000,0.300,209.000,0.500,33.000,1.000,3.000,5.000,0
"05/09/08","18:02:48",24765.000,"cc",28334.061,6,0.100,20850.000,0.200,3583.000,0.300,296.000,0.500,33.000,1.000,3.000,5.000,0
"05/09/08","18:02:54",18634.000,"cc",28334.809,6,0.100,15725.000,0.200,2655.000,0.300,215.000,0.500,34.000,1.000,5.000,5.000,0
"05/09/08","18:03:00",12783.000,"cc",28337.158,6,0.100,10690.000,0.200,1902.000,0.300,165.000,0.500,22.000,1.000,4.000,5.000,0
"05/09/08","18:03:06",8199.000,"cc",28331.127,6,0.100,6783.000,0.200,1247.000,0.300,140.000,0.500,22.000,1.000,7.000,5.000,0
"05/09/08","18:03:12",6132.000,"cc",28304.453,6,0.100,4971.000,0.200,1006.000,0.300,124.000,0.500,28.000,1.000,3.000,5.000,0
"05/09/08","18:03:18",6175.000,"cc",28352.191,6,0.100,4961.000,0.200,1046.000,0.300,137.000,0.500,29.000,1.000,2.000,5.000,0
"05/09/08","18:03:24",8517.000,"cc",28277.662,6,0.100,7067.000,0.200,1290.000,0.300,130.000,0.500,27.000,1.000,3.000,5.000,0
"05/09/08","18:03:30",5232.000,"cc",28290.594,6,0.100,4231.000,0.200,885.000,0.300,95.000,0.500,18.000,1.000,3.000,5.000,0
"05/09/08","18:03:36",5130.000,"cc",28333.367,6,0.100,4113.000,0.200,883.000,0.300,106.000,0.500,27.000,1.000,1.000,5.000,0
"05/09/08","18:03:42",6747.000,"cc",28325.723,6,0.100,5467.000,0.200,1129.000,0.300,125.000,0.500,23.000,1.000,3.000,5.000,0
"05/09/08","18:03:48",4697.000,"cc",28290.975,6,0.100,3704.000,0.200,869.000,0.300,99.000,0.500,23.000,1.000,2.000,5.000,0
"05/09/08","18:03:54",5010.000,"cc",28285.223,6,0.100,3943.000,0.200,926.000,0.300,115.000,0.500,22.000,1.000,4.000,5.000,0
"05/09/08","18:04:00",4490.000,"cc",28328.799,6,0.100,3590.000,0.200,773.000,0.300,105.000,0.500,20.000,1.000,2.000,5.000,0
"05/09/08","18:04:06",5346.000,"cc",28366.727,6,0.100,4310.000,0.200,904.000,0.300,103.000,0.500,26.000,1.000,3.000,5.000,0
"05/09/08","18:04:12",5620.000,"cc",28356.615,6,0.100,4506.000,0.200,984.000,0.300,105.000,0.500,21.000,1.000,4.000,5.000,0
"05/09/08","18:04:18",5257.000,"cc",28329.684,6,0.100,4246.000,0.200,878.000,0.300,113.000,0.500,17.000,1.000,3.000,5.000,0
"05/09/08","18:04:24",3871.000,"cc",28280.775,6,0.100,3025.000,0.200,735.000,0.300,88.000,0.500,21.000,1.000,2.000,5.000,0
"05/09/08","18:04:30",4629.000,"cc",28333.594,6,0.100,3703.000,0.200,794.000,0.300,95.000,0.500,34.000,1.000,3.000,5.000,0
"05/09/08","18:04:36",4923.000,"cc",28278.609,6,0.100,3991.000,0.200,800.000,0.300,105.000,0.500,24.000,1.000,3.000,5.000,0
"05/09/08","18:04:42",6090.000,"cc",28310.611,6,0.100,4982.000,0.200,953.000,0.300,124.000,0.500,29.000,1.000,2.000,5.000,0
"05/09/08","18:04:48",6953.000,"cc",28340.014,6,0.100,5677.000,0.200,1135.000,0.300,118.000,0.500,21.000,1.000,2.000,5.000,0
"05/09/08","18:04:54",4966.000,"cc",28286.299,6,0.100,3963.000,0.200,883.000,0.300,92.000,0.500,24.000,1.000,4.000,5.000,0
"05/09/08","18:05:00",4977.000,"cc",28308.455,6,0.100,3956.000,0.200,883.000,0.300,117.000,0.500,18.000,1.000,3.000,5.000,0
"05/09/08","18:05:06",5856.000,"cc",28339.969,6,0.100,4693.000,0.200,1033.000,0.300,105.000,0.500,23.000,1.000,2.000,5.000,0
"05/09/08","18:05:12",4388.000,"cc",28360.809,6,0.100,3475.000,0.200,792.000,0.300,94.000,0.500,23.000,1.000,4.000,5.000,0
"05/09/08","18:05:18",4148.000,"cc",28335.369,6,0.100,3218.000,0.200,789.000,0.300,101.000,0.500,37.000,1.000,3.000,5.000,0
"05/09/08","18:05:24",4315.000,"cc",28331.385,6,0.100,3414.000,0.200,778.000,0.300,95.000,0.500,26.000,1.000,2.000,5.000,0
"05/09/08","18:05:30",4667.000,"cc",28289.404,6,0.100,3691.000,0.200,853.000,0.300,103.000,0.500,15.000,1.000,5.000,5.000,0
"05/09/08","18:05:36",3408.000,"cc",28361.951,6,0.100,2633.000,0.200,650.000,0.300,103.000,0.500,19.000,1.000,3.000,5.000,0
"05/09/08","18:05:42",3360.000,"cc",28300.613,6,0.100,2556.000,0.200,688.000,0.300,95.000,0.500,19.000,1.000,2.000,5.000,0
"05/09/08","18:05:48",3763.000,"cc",28259.479,6,0.100,3012.000,0.200,646.000,0.300,80.000,0.500,22.000,1.000,3.000,5.000,0
"05/09/08","18:05:54",3876.000,"cc",28316.746,6,0.100,3013.000,0.200,751.000,0.300,92.000,0.500,19.000,1.000,1.000,5.000,0
"05/09/08","18:06:00",3684.000,"cc",28361.668,6,0.100,2836.000,0.200,728.000,0.300,99.000,0.500,17.000,1.000,4.000,5.000,0
"05/09/08","18:06:06",3811.000,"cc",28310.629,6,0.100,2954.000,0.200,746.000,0.300,93.000,0.500,17.000,1.000,1.000,5.000,0
"05/09/08","18:06:12",3570.000,"cc",28290.518,6,0.100,2759.000,0.200,699.000,0.300,88.000,0.500,19.000,1.000,5.000,5.000,0
"05/09/08","18:06:18",4124.000,"cc",28354.547,6,0.100,3267.000,0.200,731.000,0.300,100.000,0.500,24.000,1.000,2.000,5.000,0
"05/09/08","18:06:24",3697.000,"cc",28297.828,6,0.100,2868.000,0.200,697.000,0.300,107.000,0.500,23.000,1.000,2.000,5.000,0
"05/09/08","18:06:30",3437.000,"cc",28296.387,6,0.100,2662.000,0.200,637.000,0.300,111.000,0.500,24.000,1.000,3.000,5.000,0
"05/09/08","18:06:36",3699.000,"cc",28280.824,6,0.100,2863.000,0.200,712.000,0.300,94.000,0.500,27.000,1.000,3.000,5.000,0
"05/09/08","18:06:42",4628.000,"cc",28334.324,6,0.100,3663.000,0.200,812.000,0.300,115.000,0.500,33.000,1.000,5.000,5.000,0
"05/09/08","18:06:48",4963.000,"cc",28278.941,6,0.100,3902.000,0.200,940.000,0.300,94.000,0.500,23.000,1.000,4.000,5.000,0
"05/09/08","18:06:54",4072.000,"cc",28319.086,6,0.100,3208.000,0.200,760.000,0.300,89.000,0.500,13.000,1.000,2.000,5.000,0
"05/09/08","18:07:00",3611.000,"cc",28341.266,6,0.100,2791.000,0.200,682.000,0.300,116.000,0.500,20.000,1.000,2.000,5.000,0
"05/09/08","18:07:06",4856.000,"cc",28400.254,6,0.100,3831.000,0.200,887.000,0.300,113.000,0.500,23.000,1.000,2.000,5.000,0
"05/09/08","18:07:12",5518.000,"cc",28276.440,6,0.100,4414.000,0.200,983.000,0.300,96.000,0.500,21.000,1.000,4.000,5.000,0
"05/09/08","18:07:18",3752.000,"cc",28325.943,6,0.100,2972.000,0.200,679.000,0.300,79.000,0.500,22.000,1.000,0,5.000,0
"05/09/08","18:07:24",3918.000,"cc",28322.125,6,0.100,3055.000,0.200,736.000,0.300,99.000,0.500,26.000,1.000,2.000,5.000,0
"05/09/08","18:07:30",4538.000,"cc",28297.244,6,0.100,3599.000,0.200,821.000,0.300,102.000,0.500,15.000,1.000,1.000,5.000,0
"05/09/08","18:07:36",5040.000,"cc",28366.188,6,0.100,4006.000,0.200,892.000,0.300,116.000,0.500,22.000,1.000,4.000,5.000,0
"05/09/08","18:07:42",4897.000,"cc",28300.121,6,0.100,3928.000,0.200,845.000,0.300,94.000,0.500,27.000,1.000,3.000,5.000,0
"05/09/08","18:07:48",3520.000,"cc",28217.773,6,0.100,2729.000,0.200,672.000,0.300,95.000,0.500,19.000,1.000,5.000,5.000,0
"05/09/08","18:07:54",4877.000,"cc",28376.258,6,0.100,3882.000,0.200,871.000,0.300,98.000,0.500,22.000,1.000,4.000,5.000,0
"05/09/08","18:08:00",4177.000,"cc",28359.332,6,0.100,3215.000,0.200,808.000,0.300,127.000,0.500,24.000,1.000,3.000,5.000,0
"05/09/08","18:08:06",4739.000,"cc",28268.637,6,0.100,3726.000,0.200,875.000,0.300,104.000,0.500,31.000,1.000,3.000,5.000,0
"05/09/08","18:08:12",3998.000,"cc",28355.865,6,0.100,3132.000,0.200,753.000,0.300,92.000,0.500,19.000,1.000,2.000,5.000,0
"05/09/08","18:08:18",4062.000,"cc",28318.414,6,0.100,3127.000,0.200,810.000,0.300,103.000,0.500,17.000,1.000,5.000,5.000,0
"05/09/08","18:08:24",4408.000,"cc",28361.615,6,0.100,3446.000,0.200,836.000,0.300,103.000,0.500,20.000,1.000,3.000,5.000,0
"05/09/08","18:08:30",4223.000,"cc",28397.516,6,0.100,3304.000,0.200,794.000,0.300,101.000,0.500,22.000,1.000,2.000,5.000,0
"05/09/08","18:08:36",3515.000,"cc",28313.973,6,0.100,2726.000,0.200,680.000,0.300,93.000,0.500,16.000,1.000,0,5.000,0
"05/09/08","18:08:42",4323.000,"cc",28278.516,6,0.100,3377.000,0.200,820.000,0.300,105.000,0.500,20.000,1.000,1.000,5.000,0
"05/09/08","18:08:48",3922.000,"cc",28252.895,6,0.100,3013.000,0.200,768.000,0.300,108.000,0.500,32.000,1.000,1.000,5.000,0
"05/09/08","18:08:54",3729.000,"cc",28339.031,6,0.100,2897.000,0.200,707.000,0.300,98.000,0.500,21.000,1.000,6.000,5.000,0
"05/09/08","18:09:00",3528.000,"cc",28302.231,6,0.100,2719.000,0.200,689.000,0.300,98.000,0.500,18.000,1.000,4.000,5.000,0
"05/09/08","18:09:06",3348.000,"cc",28214.432,6,0.100,2603.000,0.200,655.000,0.300,67.000,0.500,22.000,1.000,1.000,5.000,0
"05/09/08","18:09:12",3641.000,"cc",28384.705,6,0.100,2816.000,0.200,706.000,0.300,97.000,0.500,21.000,1.000,1.000,5.000,0
"05/09/08","18:09:18",3222.000,"cc",28316.152,6,0.100,2480.000,0.200,637.000,0.300,86.000,0.500,17.000,1.000,2.000,5.000,0
"05/09/08","18:09:24",3279.000,"cc",28312.133,6,0.100,2506.000,0.200,657.000,0.300,96.000,0.500,19.000,1.000,1.000,5.000,0
"05/09/08","18:09:30",3483.000,"cc",28271.440,6,0.100,2710.000,0.200,673.000,0.300,86.000,0.500,12.000,1.000,2.000,5.000,0
"05/09/08","18:09:36",3569.000,"cc",28401.768,6,0.100,2728.000,0.200,723.000,0.300,92.000,0.500,25.000,1.000,1.000,5.000,0
"05/09/08","18:09:42",7637.000,"cc",28319.107,6,0.100,6161.000,0.200,1304.000,0.300,144.000,0.500,22.000,1.000,6.000,5.000,0
"05/09/08","18:09:48",8500.000,"cc",28268.461,6,0.100,6886.000,0.200,1455.000,0.300,129.000,0.500,29.000,1.000,1.000,5.000,0
"05/09/08","18:09:54",6029.000,"cc",28341.688,6,0.100,4837.000,0.200,1013.000,0.300,153.000,0.500,23.000,1.000,3.000,5.000,0
"05/09/08","18:10:00",5646.000,"cc",28328.338,6,0.100,4540.000,0.200,967.000,0.300,116.000,0.500,20.000,1.000,3.000,5.000,0
"05/09/08","18:10:06",4133.000,"cc",28308.691,6,0.100,3232.000,0.200,779.000,0.300,102.000,0.500,17.000,1.000,3.000,5.000,0
"05/09/08","18:10:12",3882.000,"cc",28276.455,6,0.100,3025.000,0.200,720.000,0.300,110.000,0.500,23.000,1.000,4.000,5.000,0
"05/09/08","18:10:18",5350.000,"cc",28301.131,6,0.100,4271.000,0.200,946.000,0.300,105.000,0.500,27.000,1.000,1.000,5.000,0
"05/09/08","18:10:24",4143.000,"cc",28255.123,6,0.100,3268.000,0.200,773.000,0.300,80.000,0.500,17.000,1.000,5.000,5.000,0
"05/09/08","18:10:30",4036.000,"cc",28376.488,6,0.100,3160.000,0.200,767.000,0.300,87.000,0.500,19.000,1.000,3.000,5.000,0
"05/09/08","18:10:36",3821.000,"cc",28336.658,6,0.100,3017.000,0.200,681.000,0.300,90.000,0.500,28.000,1.000,5.000,5.000,0
"05/09/08","18:10:42",4464.000,"cc",28297.061,6,0.100,3507.000,0.200,833.000,0.300,106.000,0.500,16.000,1.000,2.000,5.000,0
"05/09/08","18:10:48",4020.000,"cc",28313.191,6,0.100,3123.000,0.200,781.000,0.300,98.000,0.500,17.000,1.000,1.000,5.000,0
"05/09/08","18:10:54",4104.000,"cc",28317.359,6,0.100,3219.000,0.200,742.000,0.300,107.000,0.500,32.000,1.000,4.000,5.000,0
"05/09/08","18:11:00",3778.000,"cc",28360.879,6,0.100,2964.000,0.200,710.000,0.300,87.000,0.500,14.000,1.000,3.000,5.000,0
"05/09/08","18:11:06",3126.000,"cc",28328.697,6,0.100,2357.000,0.200,662.000,0.300,94.000,0.500,12.000,1.000,1.000,5.000,0
"05/09/08","18:11:12",3606.000,"cc",28286.727,6,0.100,2854.000,0.200,630.000,0.300,95.000,0.500,24.000,1.000,3.000,5.000,0
"05/09/08","18:11:18",3482.000,"cc",28295.467,6,0.100,2687.000,0.200,687.000,0.300,85.000,0.500,20.000,1.000,3.000,5.000,0
"05/09/08","18:11:24",3325.000,"cc",28351.303,6,0.100,2557.000,0.200,649.000,0.300,97.000,0.500,19.000,1.000,3.000,5.000,0
"05/09/08","18:11:30",3599.000,"cc",28321.754,6,0.100,2785.000,0.200,714.000,0.300,81.000,0.500,19.000,1.000,0,5.000,0
"05/09/08","18:11:36",4326.000,"cc",28334.662,6,0.100,3405.000,0.200,781.000,0.300,109.000,0.500,26.000,1.000,5.000,5.000,0
"05/09/08","18:11:42",3646.000,"cc",28274.705,6,0.100,2848.000,0.200,669.000,0.300,106.000,0.500,19.000,1.000,4.000,5.000,0
"05/09/08","18:11:48",3688.000,"cc",28353.272,6,0.100,2802.000,0.200,767.000,0.300,93.000,0.500,24.000,1.000,2.000,5.000,0
"05/09/08","18:11:54",3923.000,"cc",28356.197,6,0.100,2986.000,0.200,783.000,0.300,124.000,0.500,28.000,1.000,2.000,5.000,0
"05/09/08","18:12:00",3815.000,"cc",28291.440,6,0.100,2953.000,0.200,738.000,0.300,97.000,0.500,26.000,1.000,1.000,5.000,0
"05/09/08","18:12:06",3485.000,"cc",28252.813,6,0.100,2709.000,0.200,653.000,0.300,88.000,0.500,30.000,1.000,5.000,5.000,0
"05/09/08","18:12:12",3672.000,"cc",28309.147,6,0.100,2817.000,0.200,715.000,0.300,117.000,0.500,21.000,1.000,2.000,5.000,0
"05/09/08","18:12:18",3846.000,"cc",28355.141,6,0.100,2964.000,0.200,732.000,0.300,123.000,0.500,24.000,1.000,3.000,5.000,0
"05/09/08","18:12:24",4357.000,"cc",28384.945,6,0.100,3408.000,0.200,813.000,0.300,112.000,0.500,20.000,1.000,4.000,5.000,0
"05/09/08","18:12:30",5765.000,"cc",28332.309,6,0.100,4634.000,0.200,971.000,0.300,116.000,0.500,38.000,1.000,6.000,5.000,0
"05/09/08","18:12:36",6657.000,"cc",28306.621,6,0.100,5388.000,0.200,1097.000,0.300,144.000,0.500,21.000,1.000,7.000,5.000,0
"05/09/08","18:12:42",3759.000,"cc",28300.379,6,0.100,2911.000,0.200,731.000,0.300,96.000,0.500,21.000,1.000,0,5.000,0
"05/09/08","18:12:48",3725.000,"cc",28368.641,6,0.100,2877.000,0.200,735.000,0.300,104.000,0.500,8.000,1.000,1.000,5.000,0
"05/09/08","18:12:54",3779.000,"cc",28314.486,6,0.100,2966.000,0.200,684.000,0.300,109.000,0.500,19.000,1.000,1.000,5.000,0
"05/09/08","18:13:00",4038.000,"cc",28349.188,6,0.100,3131.000,0.200,786.000,0.300,100.000,0.500,18.000,1.000,3.000,5.000,0
"05/09/08","18:13:06",4808.000,"cc",28314.381,6,0.100,3804.000,0.200,873.000,0.300,112.000,0.500,18.000,1.000,1.000,5.000,0
"05/09/08","18:13:12",8351.000,"cc",28271.854,6,0.100,6859.000,0.200,1309.000,0.300,155.000,0.500,25.000,1.000,3.000,5.000,0
"05/09/08","18:13:18",7665.000,"cc",28384.750,6,0.100,6213.000,0.200,1276.000,0.300,147.000,0.500,25.000,1.000,4.000,5.000,0
"05/09/08","18:13:24",5716.000,"cc",28268.025,6,0.100,4590.000,0.200,976.000,0.300,118.000,0.500,30.000,1.000,2.000,5.000,0
"05/09/08","18:13:30",6689.000,"cc",28301.307,6,0.100,5394.000,0.200,1124.000,0.300,138.000,0.500,29.000,1.000,4.000,5.000,0
"05/09/08","18:13:36",5507.000,"cc",28302.250,6,0.100,4364.000,0.200,977.000,0.300,126.000,0.500,37.000,1.000,3.000,5.000,0
"05/09/08","18:13:42",5346.000,"cc",28304.379,6,0.100,4268.000,0.200,945.000,0.300,113.000,0.500,20.000,1.000,0,5.000,0
"05/09/08","18:13:48",4664.000,"cc",28276.934,6,0.100,3681.000,0.200,861.000,0.300,103.000,0.500,17.000,1.000,2.000,5.000,0
"05/09/08","18:13:54",5163.000,"cc",28308.502,6,0.100,4108.000,0.200,905.000,0.300,130.000,0.500,16.000,1.000,4.000,5.000,0
"05/09/08","18:14:00",4171.000,"cc",28338.604,6,0.100,3319.000,0.200,743.000,0.300,90.000,0.500,17.000,1.000,2.000,5.000,0
"05/09/08","18:14:06",4040.000,"cc",28321.859,6,0.100,3216.000,0.200,698.000,0.300,96.000,0.500,27.000,1.000,3.000,5.000,0
"05/09/08","18:14:12",6518.000,"cc",28329.076,6,0.100,5304.000,0.200,1085.000,0.300,109.000,0.500,19.000,1.000,1.000,5.000,0
"05/09/08","18:14:18",5664.000,"cc",28339.049,6,0.100,4492.000,0.200,1026.000,0.300,119.000,0.500,24.000,1.000,3.000,5.000,0
"05/09/08","18:14:24",6075.000,"cc",28271.607,6,0.100,4952.000,0.200,1010.000,0.300,93.000,0.500,18.000,1.000,2.000,5.000,0
"05/09/08","18:14:30",6249.000,"cc",28329.023,6,0.100,5053.000,0.200,1045.000,0.300,123.000,0.500,28.000,1.000,0,5.000,0
"05/09/08","18:14:36",5026.000,"cc",28337.320,6,0.100,4003.000,0.200,886.000,0.300,111.000,0.500,24.000,1.000,2.000,5.000,0
"05/09/08","18:14:42",4044.000,"cc",28299.273,6,0.100,3141.000,0.200,778.000,0.300,103.000,0.500,21.000,1.000,1.000,5.000,0
"05/09/08","18:14:48",3898.000,"cc",28287.490,6,0.100,3061.000,0.200,697.000,0.300,109.000,0.500,29.000,1.000,2.000,5.000,0
"05/09/08","18:14:54",3358.000,"cc",28287.897,6,0.100,2639.000,0.200,614.000,0.300,81.000,0.500,20.000,1.000,4.000,5.000,0
"05/09/08","18:15:00",4309.000,"cc",28295.565,6,0.100,3388.000,0.200,797.000,0.300,93.000,0.500,29.000,1.000,2.000,5.000,0
"05/09/08","18:15:06",3462.000,"cc",28284.203,6,0.100,2739.000,0.200,601.000,0.300,105.000,0.500,16.000,1.000,1.000,5.000,0
"05/09/08","18:15:12",3369.000,"cc",28368.906,6,0.100,2598.000,0.200,664.000,0.300,83.000,0.500,23.000,1.000,1.000,5.000,0
"05/09/08","18:15:18",3018.000,"cc",28316.713,6,0.100,2285.000,0.200,620.000,0.300,93.000,0.500,20.000,1.000,0,5.000,0
"05/09/08","18:15:24",2766.000,"cc",28323.766,6,0.100,2117.000,0.200,560.000,0.300,66.000,0.500,21.000,1.000,2.000,5.000,0
"05/09/08","18:15:30",2798.000,"cc",28291.420,6,0.100,2099.000,0.200,601.000,0.300,76.000,0.500,18.000,1.000,4.000,5.000,0
"05/09/08","18:15:36",3251.000,"cc",28334.947,6,0.100,2519.000,0.200,631.000,0.300,76.000,0.500,22.000,1.000,3.000,5.000,0
"05/09/08","18:15:42",3071.000,"cc",28313.197,6,0.100,2380.000,0.200,597.000,0.300,78.000,0.500,15.000,1.000,1.000,5.000,0
"05/09/08","18:15:48",3373.000,"cc",28266.670,6,0.100,2650.000,0.200,621.000,0.300,84.000,0.500,18.000,1.000,0,5.000,0
"05/09/08","18:15:54",3611.000,"cc",28338.648,6,0.100,2846.000,0.200,678.000,0.300,65.000,0.500,20.000,1.000,2.000,5.000,0
"05/09/08","18:16:00",3598.000,"cc",28337.996,6,0.100,2836.000,0.200,669.000,0.300,78.000,0.500,15.000,1.000,0,5.000,0
"05/09/08","18:16:06",2871.000,"cc",28332.068,6,0.100,2203.000,0.200,544.000,0.300,100.000,0.500,24.000,1.000,0,5.000,0
"05/09/08","18:16:12",2703.000,"cc",28314.580,6,0.100,2087.000,0.200,535.000,0.300,68.000,0.500,12.000,1.000,1.000,5.000,0
"05/09/08","18:16:18",2893.000,"cc",28280.840,6,0.100,2231.000,0.200,544.000,0.300,89.000,0.500,26.000,1.000,3.000,5.000,0
"05/09/08","18:16:24",2875.000,"cc",28308.033,6,0.100,2213.000,0.200,575.000,0.300,70.000,0.500,17.000,1.000,0,5.000,0
"05/09/08","18:16:30",3056.000,"cc",28424.574,6,0.100,2383.000,0.200,572.000,0.300,87.000,0.500,13.000,1.000,1.000,5.000,0
"05/09/08","18:16:36",3747.000,"cc",28348.148,6,0.100,2962.000,0.200,656.000,0.300,101.000,0.500,27.000,1.000,1.000,5.000,0
"05/09/08","18:16:42",3632.000,"cc",28247.330,6,0.100,2887.000,0.200,641.000,0.300,80.000,0.500,23.000,1.000,1.000,5.000,0
"05/09/08","18:16:48",3269.000,"cc",28310.406,6,0.100,2540.000,0.200,625.000,0.300,93.000,0.500,10.000,1.000,1.000,5.000,0
"05/09/08","18:16:54",3541.000,"cc",28243.760,6,0.100,2774.000,0.200,642.000,0.300,94.000,0.500,27.000,1.000,4.000,5.000,0
"05/09/08","18:17:00",3342.000,"cc",28296.150,6,0.100,2612.000,0.200,631.000,0.300,81.000,0.500,16.000,1.000,2.000,5.000,0
"05/09/08","18:17:06",3348.000,"cc",28301.094,6,0.100,2626.000,0.200,609.000,0.300,93.000,0.500,20.000,1.000,0,5.000,0
"05/09/08","18:17:12",3884.000,"cc",28320.272,6,0.100,2989.000,0.200,760.000,0.300,108.000,0.500,27.000,1.000,0,5.000,0
"05/09/08","18:17:18",4103.000,"cc",28335.010,6,0.100,3277.000,0.200,687.000,0.300,110.000,0.500,28.000,1.000,1.000,5.000,0
"05/09/08","18:17:24",3184.000,"cc",28321.842,6,0.100,2474.000,0.200,574.000,0.300,112.000,0.500,21.000,1.000,3.000,5.000,0
"05/09/08","18:17:30",2832.000,"cc",28308.959,6,0.100,2191.000,0.200,532.000,0.300,79.000,0.500,28.000,1.000,2.000,5.000,0
"05/09/08","18:17:36",3145.000,"cc",28300.195,6,0.100,2438.000,0.200,588.000,0.300,90.000,0.500,27.000,1.000,2.000,5.000,0
"05/09/08","18:17:42",3115.000,"cc",28332.721,6,0.100,2408.000,0.200,591.000,0.300,90.000,0.500,22.000,1.000,4.000,5.000,0
"05/09/08","18:17:48",3026.000,"cc",28286.123,6,0.100,2315.000,0.200,607.000,0.300,95.000,0.500,9.000,1.000,0,5.000,0
"05/09/08","18:17:54",3077.000,"cc",28311.627,6,0.100,2385.000,0.200,600.000,0.300,75.000,0.500,17.000,1.000,0,5.000,0
"05/09/08","18:18:00",2927.000,"cc",28331.406,6,0.100,2213.000,0.200,591.000,0.300,103.000,0.500,19.000,1.000,1.000,5.000,0
"05/09/08","18:18:06",2655.000,"cc",28364.717,6,0.100,2021.000,0.200,522.000,0.300,92.000,0.500,19.000,1.000,1.000,5.000,0